Home   Weather   Knittelfeld   Past weeks

Flag for Austria Past Weather in Knittelfeld, Styria, Austria — Yesterday and Last 2 Weeks

Now
52 °F

Partly cloudy.


Feels Like: 49 °F
Forecast: 36 / 54 °F
Wind: 7 mph from South

Location: Zeltweg

Current Time: Feb 22, 2017 at 6:41:10 pm

Latest Report: Feb 22, 2017 at 5:50 pm


Visibility: 19 mi

Pressure: 29.80 "Hg (27.59 "Hg at 641m altitude)

Humidity: 54%

Dew Point: 36 °F

Location of KnittelfeldLocation

Past Weather in Knittelfeld — Graph

°F

Knittelfeld Temperature Yesterday

Maximum temperature yesterday: 54 °F (at 2:50 pm)
Minimum temperature yesterday: 27 °F (at 4:50 am)
Average temperature yesterday: 40 °F

High & Low Weather Summary for the Past Weeks

 TemperatureHumidityPressure
High59 °F (Feb 22, 2:20 pm)100% (Feb 7, 7:50 pm)30.60 "Hg (Feb 7, 7:50 pm)
Low23 °F (Feb 14, 5:50 am)42% (Feb 22, 2:20 pm)29.80 "Hg (Feb 22, 2:50 pm)
Average35 °F78%30.24 "Hg
* Reported Feb 7 5:50 pm — Feb 22 5:20 pm, Knittelfeld, Weather by CustomWeather, © 2017

Note: Actual official high and low records may vary slightly from our data, if they occured in-between our weather recording intervals... More about our weather records

Advertising

Knittelfeld Weather History for the Previous 24 Hours

Scroll right to see more
 ConditionsComfort  
Time TempWeatherWind HumidityBarometerVisibility
5:20 pm
Wed, Feb 22
54 °FPartly sunny.8 mph51%29.80 "Hg19 mi
4:50 pm55 °FPartly sunny.7 mph47%29.80 "Hg25 mi
4:20 pm55 °FBroken clouds.3 mph51%29.80 "Hg25 mi
3:50 pm55 °FScattered clouds.9 mph47%29.80 "Hg25 mi
3:20 pm59 °FScattered clouds.12 mph42%29.80 "Hg25 mi
2:50 pm59 °FScattered clouds.9 mph42%29.80 "Hg25 mi
2:20 pm59 °FPassing clouds.6 mph42%29.83 "Hg25 mi
1:50 pm57 °FPassing clouds.1 mph55%29.83 "Hg25 mi
1:20 pm54 °FPassing clouds.1 mph63%29.86 "Hg31 mi
12:50 pm52 °FPassing clouds.2 mph67%29.86 "Hg31 mi
12:20 pm50 °FScattered clouds.2 mph71%29.89 "Hg25 mi
11:50 am50 °FScattered clouds.2 mph67%29.92 "Hg25 mi
11:20 am46 °FBroken clouds.2 mph76%29.92 "Hg25 mi
10:50 am45 °FBroken clouds.2 mph81%29.95 "Hg25 mi
10:20 am41 °FBroken clouds.3 mph87%29.95 "Hg19 mi
9:50 am41 °FBroken clouds.1 mph87%29.95 "Hg19 mi
9:20 am37 °FBroken clouds.1 mph93%29.98 "Hg12 mi
8:50 am36 °FChilly.2 mph100%29.98 "Hg9 mi
8:20 am36 °FChilly.1 mph93%29.98 "Hg9 mi
7:50 am36 °FChilly.2 mph93%29.98 "Hg9 mi
7:20 am34 °FChilly.1 mph100%29.98 "Hg9 mi
6:50 am34 °FChilly.1 mph100%29.98 "Hg9 mi
5:50 am34 °FPartly cloudy.1 mph100%29.98 "Hg6 mi
4:50 am36 °FSprinkles. Passing clouds.1 mph93%29.98 "Hg6 mi
9:50 pm
Tue, Feb 21
41 °FPassing clouds.3 mph81%29.98 "Hg12 mi
8:50 pm43 °FPassing clouds.5 mph76%29.95 "Hg12 mi
8:20 pm41 °FPassing clouds.5 mph81%29.95 "Hg12 mi
7:50 pm45 °FPassing clouds.14 mph71%29.92 "Hg12 mi
7:20 pm46 °FPassing clouds.17 mph66%29.92 "Hg12 mi
6:50 pm46 °FPassing clouds.14 mph66%29.92 "Hg12 mi
6:20 pm46 °FSprinkles. Passing clouds.13 mph66%29.92 "Hg12 mi
Weather by CustomWeather, © 2017

See weather overviewHow to use our weather pages